Time,TemperatureF,DewpointF,PressureIn,WindDirection,WindDirectionDegrees,WindSpeedMPH,WindSpeedGustMPH,Humidity,HourlyPrecipIn,Conditions,Clouds,dailyrainin,SoftwareType,DateUTC
2013-11-28 00:03:00,26.7,23.9,30.29,NNE,22,0.0,9.0,89,0.00,,,0.00,Wunderground v.1.15,2013-11-28 06:03:00,
2013-11-28 00:08:00,26.6,23.8,30.29,NNE,21,0.0,0.0,89,0.00,,,0.00,Wunderground v.1.15,2013-11-28 06:08:00,
2013-11-28 00:13:00,26.5,23.7,30.28,NNE,21,0.0,1.0,89,0.00,,,0.00,Wunderground v.1.15,2013-11-28 06:13:00,
2013-11-28 00:18:00,26.5,23.7,30.28,NNE,21,1.0,1.0,89,0.00,,,0.00,Wunderground v.1.15,2013-11-28 06:18:00,
2013-11-28 00:23:00,26.3,23.5,30.28,NNE,22,0.0,1.0,89,0.00,,,0.00,Wunderground v.1.15,2013-11-28 06:23:00,
2013-11-28 00:28:00,26.3,23.5,30.28,NNE,22,0.0,0.0,89,0.00,,,0.00,Wunderground v.1.15,2013-11-28 06:28:00,
2013-11-28 00:33:00,26.1,23.3,30.29,NNE,22,0.0,2.0,89,0.00,,,0.00,Wunderground v.1.15,2013-11-28 06:33:00,
2013-11-28 00:38:00,26.0,23.2,30.29,NNE,21,0.0,2.0,89,0.00,,,0.00,Wunderground v.1.15,2013-11-28 06:38:00,
2013-11-28 00:43:00,25.9,23.1,30.28,NNE,21,0.0,2.0,89,0.00,,,0.00,Wunderground v.1.15,2013-11-28 06:43:00,
2013-11-28 00:48:00,25.8,23.0,30.28,NNE,22,0.0,2.0,89,0.00,,,0.00,Wunderground v.1.15,2013-11-28 06:48:00,
2013-11-28 00:58:00,25.5,22.7,30.29,NNE,22,0.0,2.0,89,0.00,,,0.00,Wunderground v.1.15,2013-11-28 06:58:00,
2013-11-28 01:03:00,25.3,22.5,30.29,NNE,22,0.0,2.0,89,0.00,,,0.00,Wunderground v.1.15,2013-11-28 07:03:00,
2013-11-28 01:08:00,25.4,22.9,30.29,NNE,22,0.0,2.0,90,0.00,,,0.00,Wunderground v.1.15,2013-11-28 07:08:00,
2013-11-28 01:13:00,25.4,22.9,30.29,NNE,22,0.0,2.0,90,0.00,,,0.00,Wunderground v.1.15,2013-11-28 07:13:00,
2013-11-28 01:18:00,25.4,22.9,30.29,NNE,22,0.0,2.0,90,0.00,,,0.00,Wunderground v.1.15,2013-11-28 07:18:00,
2013-11-28 01:23:00,25.4,22.9,30.29,NNE,21,0.0,2.0,90,0.00,,,0.00,Wunderground v.1.15,2013-11-28 07:23:00,
2013-11-28 01:28:00,25.3,22.8,30.29,NNE,22,0.0,2.0,90,0.00,,,0.00,Wunderground v.1.15,2013-11-28 07:28:00,
2013-11-28 01:33:00,25.3,22.8,30.29,NNE,22,0.0,2.0,90,0.00,,,0.00,Wunderground v.1.15,2013-11-28 07:33:00,
2013-11-28 01:38:00,25.2,22.7,30.29,NNE,21,0.0,2.0,90,0.00,,,0.00,Wunderground v.1.15,2013-11-28 07:38:00,
2013-11-28 01:43:00,25.1,22.6,30.29,NNE,22,0.0,2.0,90,0.00,,,0.00,Wunderground v.1.15,2013-11-28 07:43:00,
2013-11-28 01:48:00,25.1,22.8,30.30,NNE,21,0.0,2.0,91,0.00,,,0.00,Wunderground v.1.15,2013-11-28 07:48:00,
2013-11-28 01:53:00,25.1,22.6,30.30,NNE,22,0.0,2.0,90,0.00,,,0.00,Wunderground v.1.15,2013-11-28 07:53:00,
2013-11-28 01:58:00,24.9,22.4,30.30,NNE,22,0.0,2.0,90,0.00,,,0.00,Wunderground v.1.15,2013-11-28 07:58:00,
2013-11-28 02:03:00,24.9,22.6,30.30,NNE,22,0.0,2.0,91,0.00,,,0.00,Wunderground v.1.15,2013-11-28 08:03:00,
2013-11-28 02:08:00,24.8,22.5,30.30,NNE,22,0.0,2.0,91,0.00,,,0.00,Wunderground v.1.15,2013-11-28 08:08:00,
2013-11-28 02:13:00,24.7,22.4,30.30,NNE,22,0.0,2.0,91,0.00,,,0.00,Wunderground v.1.15,2013-11-28 08:13:00,
2013-11-28 02:18:00,24.6,22.3,30.30,NNE,22,0.0,2.0,91,0.00,,,0.00,Wunderground v.1.15,2013-11-28 08:18:00,
2013-11-28 02:23:00,24.6,22.3,30.30,NNE,22,0.0,2.0,91,0.00,,,0.00,Wunderground v.1.15,2013-11-28 08:23:00,
2013-11-28 02:28:00,24.8,22.5,30.30,NNE,21,1.0,2.0,91,0.00,,,0.00,Wunderground v.1.15,2013-11-28 08:28:00,
2013-11-28 02:33:00,24.9,22.9,30.30,NNE,21,1.0,2.0,92,0.00,,,0.00,Wunderground v.1.15,2013-11-28 08:33:00,
2013-11-28 02:38:00,25.1,23.1,30.30,NNE,23,1.0,2.0,92,0.00,,,0.00,Wunderground v.1.15,2013-11-28 08:38:00,
2013-11-28 02:43:00,25.3,23.3,30.30,NNE,24,2.0,2.0,92,0.00,,,0.00,Wunderground v.1.15,2013-11-28 08:43:00,
2013-11-28 02:48:00,25.5,23.5,30.29,NE,35,2.0,2.0,92,0.00,,,0.00,Wunderground v.1.15,2013-11-28 08:48:00,
2013-11-28 02:53:00,25.6,23.3,30.29,North,10,2.0,2.0,91,0.00,,,0.00,Wunderground v.1.15,2013-11-28 08:53:00,
2013-11-28 02:58:00,25.6,23.3,30.29,North,11,1.0,2.0,91,0.00,,,0.00,Wunderground v.1.15,2013-11-28 08:58:00,
2013-11-28 03:03:00,25.6,23.3,30.30,North,11,1.0,2.0,91,0.00,,,0.00,Wunderground v.1.15,2013-11-28 09:03:00,
2013-11-28 03:08:00,25.6,23.3,30.30,NNE,19,1.0,1.0,91,0.00,,,0.00,Wunderground v.1.15,2013-11-28 09:08:00,
2013-11-28 03:13:00,25.5,23.2,30.30,NNE,18,1.0,2.0,91,0.00,,,0.00,Wunderground v.1.15,2013-11-28 09:13:00,
2013-11-28 03:18:00,25.5,23.2,30.31,NNE,18,1.0,2.0,91,0.00,,,0.00,Wunderground v.1.15,2013-11-28 09:18:00,
2013-11-28 03:23:00,25.5,23.2,30.31,NNE,19,1.0,2.0,91,0.00,,,0.00,Wunderground v.1.15,2013-11-28 09:23:00,
2013-11-28 03:28:00,25.5,23.0,30.30,NNE,18,1.0,1.0,90,0.00,,,0.00,Wunderground v.1.15,2013-11-28 09:28:00,
2013-11-28 03:33:00,25.5,23.0,30.30,NNE,26,1.0,2.0,90,0.00,,,0.00,Wunderground v.1.15,2013-11-28 09:33:00,
2013-11-28 03:43:00,25.6,23.1,30.29,NNE,30,2.0,2.0,90,0.00,,,0.00,Wunderground v.1.15,2013-11-28 09:43:00,
2013-11-28 03:48:00,25.6,23.1,30.29,NNE,21,2.0,2.0,90,0.00,,,0.00,Wunderground v.1.15,2013-11-28 09:48:00,
2013-11-28 03:53:00,25.6,23.1,30.29,NNE,27,2.0,3.0,90,0.00,,,0.00,Wunderground v.1.15,2013-11-28 09:53:00,
2013-11-28 03:58:00,25.6,23.1,30.29,NNE,21,2.0,3.0,90,0.00,,,0.00,Wunderground v.1.15,2013-11-28 09:58:00,
2013-11-28 04:03:00,25.7,23.2,30.29,NNE,27,3.0,3.0,90,0.00,,,0.00,Wunderground v.1.15,2013-11-28 10:03:00,
2013-11-28 04:08:00,25.6,23.1,30.29,NNE,28,2.0,2.0,90,0.00,,,0.00,Wunderground v.1.15,2013-11-28 10:08:00,
2013-11-28 04:13:00,25.7,23.2,30.29,NNE,28,3.0,3.0,90,0.00,,,0.00,Wunderground v.1.15,2013-11-28 10:13:00,
2013-11-28 04:18:00,25.7,23.2,30.29,NNE,24,3.0,3.0,90,0.00,,,0.00,Wunderground v.1.15,2013-11-28 10:18:00,
2013-11-28 04:23:00,25.7,23.2,30.29,NNE,26,2.0,3.0,90,0.00,,,0.00,Wunderground v.1.15,2013-11-28 10:23:00,
2013-11-28 04:28:00,25.7,23.2,30.29,NNE,30,3.0,3.0,90,0.00,,,0.00,Wunderground v.1.15,2013-11-28 10:28:00,
2013-11-28 04:33:00,25.7,22.9,30.29,NNE,26,3.0,3.0,89,0.00,,,0.00,Wunderground v.1.15,2013-11-28 10:33:00,
2013-11-28 04:38:00,25.7,22.9,30.29,NNE,30,3.0,3.0,89,0.00,,,0.00,Wunderground v.1.15,2013-11-28 10:38:00,
2013-11-28 04:43:00,25.7,22.9,30.29,NNE,31,3.0,3.0,89,0.00,,,0.00,Wunderground v.1.15,2013-11-28 10:43:00,
2013-11-28 04:48:00,25.7,22.9,30.29,NE,39,3.0,3.0,89,0.00,,,0.00,Wunderground v.1.15,2013-11-28 10:48:00,
2013-11-28 04:53:00,25.7,22.9,30.29,NNE,24,3.0,5.0,89,0.00,,,0.00,Wunderground v.1.15,2013-11-28 10:53:00,
2013-11-28 04:58:00,25.7,22.9,30.28,NE,35,3.0,3.0,89,0.00,,,0.00,Wunderground v.1.15,2013-11-28 10:58:00,
2013-11-28 05:03:00,25.8,22.7,30.28,NNE,33,3.0,3.0,88,0.00,,,0.00,Wunderground v.1.15,2013-11-28 11:03:00,
2013-11-28 05:08:00,25.8,22.7,30.28,NNE,18,3.0,3.0,88,0.00,,,0.00,Wunderground v.1.15,2013-11-28 11:08:00,
2013-11-28 05:13:00,26.0,22.9,30.28,NE,37,3.0,4.0,88,0.00,,,0.00,Wunderground v.1.15,2013-11-28 11:13:00,
2013-11-28 05:18:00,26.0,22.7,30.28,ENE,67,3.0,4.0,87,0.00,,,0.00,Wunderground v.1.15,2013-11-28 11:18:00,
2013-11-28 05:23:00,26.0,22.7,30.28,NNE,28,3.0,4.0,87,0.00,,,0.00,Wunderground v.1.15,2013-11-28 11:23:00,
2013-11-28 05:28:00,26.0,22.7,30.28,NNE,20,2.0,2.0,87,0.00,,,0.00,Wunderground v.1.15,2013-11-28 11:28:00,
2013-11-28 05:33:00,26.0,22.7,30.29,NNE,20,2.0,5.0,87,0.00,,,0.00,Wunderground v.1.15,2013-11-28 11:33:00,
2013-11-28 05:38:00,25.9,22.6,30.29,NNE,20,1.0,1.0,87,0.00,,,0.00,Wunderground v.1.15,2013-11-28 11:38:00,
2013-11-28 05:43:00,25.7,22.4,30.29,NNE,19,0.0,5.0,87,0.00,,,0.00,Wunderground v.1.15,2013-11-28 11:43:00,
2013-11-28 05:48:00,25.5,22.2,30.31,NNE,20,0.0,5.0,87,0.00,,,0.00,Wunderground v.1.15,2013-11-28 11:48:00,
2013-11-28 05:53:00,25.3,22.0,30.31,NNE,20,0.0,5.0,87,0.00,,,0.00,Wunderground v.1.15,2013-11-28 11:53:00,
2013-11-28 05:58:00,25.0,21.7,30.31,NNE,20,0.0,5.0,87,0.00,,,0.00,Wunderground v.1.15,2013-11-28 11:58:00,
2013-11-28 06:03:00,24.7,21.4,30.31,NNE,20,0.0,5.0,87,0.00,,,0.00,Wunderground v.1.15,2013-11-28 12:03:00,
2013-11-28 06:08:00,24.5,21.5,30.31,NNE,20,0.0,5.0,88,0.00,,,0.00,Wunderground v.1.15,2013-11-28 12:08:00,
2013-11-28 06:13:00,24.4,21.4,30.32,NNE,19,0.0,5.0,88,0.00,,,0.00,Wunderground v.1.15,2013-11-28 12:13:00,
2013-11-28 06:23:00,24.0,21.0,30.32,NNE,19,0.0,5.0,88,0.00,,,0.00,Wunderground v.1.15,2013-11-28 12:23:00,
2013-11-28 06:28:00,23.9,21.1,30.32,NNE,19,0.0,5.0,89,0.00,,,0.00,Wunderground v.1.15,2013-11-28 12:28:00,
2013-11-28 06:33:00,23.8,21.0,30.33,NNE,20,0.0,5.0,89,0.00,,,0.00,Wunderground v.1.15,2013-11-28 12:33:00,
2013-11-28 06:38:00,23.7,20.9,30.33,NNE,20,0.0,5.0,89,0.00,,,0.00,Wunderground v.1.15,2013-11-28 12:38:00,
2013-11-28 06:43:00,23.6,21.1,30.33,NNE,20,0.0,5.0,90,0.00,,,0.00,Wunderground v.1.15,2013-11-28 12:43:00,
2013-11-28 06:48:00,23.5,21.0,30.32,NNE,19,0.0,5.0,90,0.00,,,0.00,Wunderground v.1.15,2013-11-28 12:48:00,
2013-11-28 06:53:00,23.4,20.9,30.32,NNE,19,0.0,5.0,90,0.00,,,0.00,Wunderground v.1.15,2013-11-28 12:53:00,
2013-11-28 06:58:00,23.4,20.9,30.32,NNE,20,0.0,5.0,90,0.00,,,0.00,Wunderground v.1.15,2013-11-28 12:58:00,
2013-11-28 07:08:00,23.3,20.8,30.34,NNE,19,0.0,5.0,90,0.00,,,0.00,Wunderground v.1.15,2013-11-28 13:08:00,
2013-11-28 07:13:00,23.3,21.1,30.34,NNE,20,0.0,5.0,91,0.00,,,0.00,Wunderground v.1.15,2013-11-28 13:13:00,
2013-11-28 07:18:00,23.3,21.1,30.34,NNE,20,0.0,5.0,91,0.00,,,0.00,Wunderground v.1.15,2013-11-28 13:18:00,
2013-11-28 07:23:00,23.4,21.2,30.34,NNE,20,0.0,5.0,91,0.00,,,0.00,Wunderground v.1.15,2013-11-28 13:23:00,
2013-11-28 07:28:00,23.7,21.7,30.34,NNE,19,0.0,5.0,92,0.00,,,0.00,Wunderground v.1.15,2013-11-28 13:28:00,
2013-11-28 07:38:00,24.9,22.9,30.34,NE,48,2.0,2.0,92,0.00,,,0.00,Wunderground v.1.15,2013-11-28 13:38:00,
2013-11-28 07:43:00,25.4,23.4,30.34,ENE,62,1.0,5.0,92,0.00,,,0.00,Wunderground v.1.15,2013-11-28 13:43:00,
2013-11-28 07:48:00,25.9,23.6,30.34,ENE,65,1.0,5.0,91,0.00,,,0.00,Wunderground v.1.15,2013-11-28 13:48:00,
2013-11-28 07:53:00,26.3,23.8,30.34,NNE,14,1.0,5.0,90,0.00,,,0.00,Wunderground v.1.15,2013-11-28 13:53:00,
2013-11-28 07:58:00,26.7,23.9,30.34,North,11,1.0,5.0,89,0.00,,,0.00,Wunderground v.1.15,2013-11-28 13:58:00,
2013-11-28 08:03:00,27.2,24.4,30.36,NNE,26,1.0,5.0,89,0.00,,,0.00,Wunderground v.1.15,2013-11-28 14:03:00,
2013-11-28 08:08:00,27.6,24.5,30.36,NNE,24,1.0,5.0,88,0.00,,,0.00,Wunderground v.1.15,2013-11-28 14:08:00,
2013-11-28 08:13:00,28.1,24.5,30.36,NNE,32,2.0,5.0,86,0.00,,,0.00,Wunderground v.1.15,2013-11-28 14:13:00,
2013-11-28 08:18:00,28.6,24.4,30.36,NNE,22,2.0,5.0,84,0.00,,,0.00,Wunderground v.1.15,2013-11-28 14:18:00,
2013-11-28 08:23:00,29.2,25.0,30.36,NE,41,2.0,5.0,84,0.00,,,0.00,Wunderground v.1.15,2013-11-28 14:23:00,
2013-11-28 08:28:00,29.7,25.2,30.36,NNE,26,2.0,5.0,83,0.00,,,0.00,Wunderground v.1.15,2013-11-28 14:28:00,
2013-11-28 08:33:00,30.4,25.0,30.37,NE,44,2.0,5.0,80,0.00,,,0.00,Wunderground v.1.15,2013-11-28 14:33:00,
2013-11-28 08:38:00,30.9,24.8,30.37,NE,37,2.0,5.0,78,0.00,,,0.00,Wunderground v.1.15,2013-11-28 14:38:00,
2013-11-28 08:43:00,31.3,24.9,30.37,NNE,28,2.0,6.0,77,0.00,,,0.00,Wunderground v.1.15,2013-11-28 14:43:00,
2013-11-28 08:48:00,31.5,24.5,30.37,NNE,24,3.0,3.0,75,0.00,,,0.00,Wunderground v.1.15,2013-11-28 14:48:00,
2013-11-28 08:53:00,31.7,24.7,30.37,NNE,30,4.0,4.0,75,0.00,,,0.00,Wunderground v.1.15,2013-11-28 14:53:00,
2013-11-28 08:58:00,32.0,25.3,30.37,NE,38,3.0,3.0,76,0.00,,,0.00,Wunderground v.1.15,2013-11-28 14:58:00,
2013-11-28 09:03:00,32.6,25.2,30.37,NE,35,2.0,5.0,74,0.00,,,0.00,Wunderground v.1.15,2013-11-28 15:03:00,
2013-11-28 09:08:00,32.7,25.0,30.37,NE,54,3.0,5.0,73,0.00,,,0.00,Wunderground v.1.15,2013-11-28 15:08:00,
2013-11-28 09:13:00,32.9,24.9,30.38,NNE,32,3.0,5.0,72,0.00,,,0.00,Wunderground v.1.15,2013-11-28 15:13:00,
2013-11-28 09:18:00,32.9,25.2,30.38,ENE,77,3.0,3.0,73,0.00,,,0.00,Wunderground v.1.15,2013-11-28 15:18:00,
2013-11-28 09:23:00,33.2,25.5,30.38,NE,51,3.0,4.0,73,0.00,,,0.00,Wunderground v.1.15,2013-11-28 15:23:00,
2013-11-28 09:28:00,33.5,26.1,30.38,East,93,2.0,5.0,74,0.00,,,0.00,Wunderground v.1.15,2013-11-28 15:28:00,
2013-11-28 09:33:00,34.0,25.9,30.38,NNE,26,2.0,5.0,72,0.00,,,0.00,Wunderground v.1.15,2013-11-28 15:33:00,
2013-11-28 09:38:00,34.0,25.9,30.38,NE,35,3.0,3.0,72,0.00,,,0.00,Wunderground v.1.15,2013-11-28 15:38:00,
2013-11-28 09:43:00,34.3,25.9,30.38,NE,55,4.0,4.0,71,0.00,,,0.00,Wunderground v.1.15,2013-11-28 15:43:00,
2013-11-28 09:53:00,35.3,26.5,30.37,ESE,107,2.0,5.0,70,0.00,,,0.00,Wunderground v.1.15,2013-11-28 15:53:00,
2013-11-28 09:58:00,35.9,26.7,30.37,ENE,63,2.0,2.0,69,0.00,,,0.00,Wunderground v.1.15,2013-11-28 15:58:00,
2013-11-28 10:03:00,36.1,26.2,30.37,ENE,76,2.0,5.0,67,0.00,,,0.00,Wunderground v.1.15,2013-11-28 16:03:00,
2013-11-28 10:08:00,36.2,26.6,30.37,NE,54,2.0,5.0,68,0.00,,,0.00,Wunderground v.1.15,2013-11-28 16:08:00,
2013-11-28 10:13:00,36.2,25.9,30.37,NE,41,3.0,5.0,66,0.00,,,0.00,Wunderground v.1.15,2013-11-28 16:13:00,
2013-11-28 10:18:00,36.3,26.0,30.37,NE,49,3.0,5.0,66,0.00,,,0.00,Wunderground v.1.15,2013-11-28 16:18:00,
2013-11-28 10:23:00,36.4,26.1,30.37,NE,38,2.0,5.0,66,0.00,,,0.00,Wunderground v.1.15,2013-11-28 16:23:00,
2013-11-28 10:28:00,36.5,26.6,30.37,NE,48,2.0,5.0,67,0.00,,,0.00,Wunderground v.1.15,2013-11-28 16:28:00,
2013-11-28 10:33:00,36.9,26.2,30.37,NNE,26,3.0,5.0,65,0.00,,,0.00,Wunderground v.1.15,2013-11-28 16:33:00,
2013-11-28 10:38:00,37.4,26.7,30.37,NNE,32,2.0,2.0,65,0.00,,,0.00,Wunderground v.1.15,2013-11-28 16:38:00,
2013-11-28 10:43:00,38.2,26.7,30.36,ENE,57,2.0,5.0,63,0.00,,,0.00,Wunderground v.1.15,2013-11-28 16:43:00,
2013-11-28 10:48:00,38.5,26.2,30.36,ESE,109,2.0,5.0,61,0.00,,,0.00,Wunderground v.1.15,2013-11-28 16:48:00,
2013-11-28 10:53:00,39.3,26.2,30.36,SE,130,2.0,5.0,59,0.00,,,0.00,Wunderground v.1.15,2013-11-28 16:53:00,
2013-11-28 10:58:00,39.7,26.5,30.35,NE,55,2.0,5.0,59,0.00,,,0.00,Wunderground v.1.15,2013-11-28 16:58:00,
2013-11-28 11:03:00,40.2,27.4,30.35,NE,54,2.0,5.0,60,0.00,,,0.00,Wunderground v.1.15,2013-11-28 17:03:00,
2013-11-28 11:08:00,40.8,27.2,30.35,East,84,2.0,2.0,58,0.00,,,0.00,Wunderground v.1.15,2013-11-28 17:08:00,
2013-11-28 11:13:00,41.2,27.1,30.35,NE,38,1.0,5.0,57,0.00,,,0.00,Wunderground v.1.15,2013-11-28 17:13:00,
2013-11-28 11:18:00,41.9,27.8,30.35,SE,144,1.0,5.0,57,0.00,,,0.00,Wunderground v.1.15,2013-11-28 17:18:00,
2013-11-28 11:23:00,42.2,27.2,30.35,ENE,59,1.0,5.0,55,0.00,,,0.00,Wunderground v.1.15,2013-11-28 17:23:00,
2013-11-28 11:28:00,42.0,26.1,30.35,NE,46,2.0,5.0,53,0.00,,,0.00,Wunderground v.1.15,2013-11-28 17:28:00,
2013-11-28 11:33:00,41.7,26.3,30.34,NE,50,3.0,5.0,54,0.00,,,0.00,Wunderground v.1.15,2013-11-28 17:33:00,
2013-11-28 11:38:00,42.0,26.5,30.34,East,94,2.0,5.0,54,0.00,,,0.00,Wunderground v.1.15,2013-11-28 17:38:00,
2013-11-28 11:43:00,43.0,27.5,30.34,NNE,30,1.0,5.0,54,0.00,,,0.00,Wunderground v.1.15,2013-11-28 17:43:00,
2013-11-28 11:48:00,43.3,26.8,30.33,NE,49,2.0,2.0,52,0.00,,,0.00,Wunderground v.1.15,2013-11-28 17:48:00,
2013-11-28 11:53:00,43.3,26.4,30.33,NE,49,2.0,4.0,51,0.00,,,0.00,Wunderground v.1.15,2013-11-28 17:53:00,
2013-11-28 11:58:00,43.1,26.2,30.33,NE,48,3.0,3.0,51,0.00,,,0.00,Wunderground v.1.15,2013-11-28 17:58:00,
2013-11-28 12:03:00,43.7,27.2,30.33,NE,41,2.0,5.0,52,0.00,,,0.00,Wunderground v.1.15,2013-11-28 18:03:00,
2013-11-28 12:08:00,44.4,28.3,30.33,West,272,2.0,5.0,53,0.00,,,0.00,Wunderground v.1.15,2013-11-28 18:08:00,
2013-11-28 12:13:00,44.5,27.0,30.33,NE,41,2.0,5.0,50,0.00,,,0.00,Wunderground v.1.15,2013-11-28 18:13:00,
2013-11-28 12:18:00,44.5,27.0,30.33,NW,307,2.0,5.0,50,0.00,,,0.00,Wunderground v.1.15,2013-11-28 18:18:00,
2013-11-28 12:23:00,44.7,27.2,30.33,NW,317,1.0,5.0,50,0.00,,,0.00,Wunderground v.1.15,2013-11-28 18:23:00,
2013-11-28 12:28:00,45.1,27.6,30.32,WNW,292,1.0,1.0,50,0.00,,,0.00,Wunderground v.1.15,2013-11-28 18:28:00,
2013-11-28 12:33:00,45.5,27.4,30.32,WNW,283,0.0,5.0,49,0.00,,,0.00,Wunderground v.1.15,2013-11-28 18:33:00,
2013-11-28 12:38:00,46.0,27.9,30.32,WSW,252,1.0,5.0,49,0.00,,,0.00,Wunderground v.1.15,2013-11-28 18:38:00,
2013-11-28 12:43:00,46.0,27.4,30.32,WSW,249,1.0,5.0,48,0.00,,,0.00,Wunderground v.1.15,2013-11-28 18:43:00,
2013-11-28 12:48:00,45.9,27.3,30.32,SW,215,2.0,2.0,48,0.00,,,0.00,Wunderground v.1.15,2013-11-28 18:48:00,
2013-11-28 12:53:00,46.0,27.9,30.32,SSE,159,1.0,5.0,49,0.00,,,0.00,Wunderground v.1.15,2013-11-28 18:53:00,
2013-11-28 12:58:00,46.2,27.6,30.32,SE,126,1.0,5.0,48,0.00,,,0.00,Wunderground v.1.15,2013-11-28 18:58:00,
2013-11-28 13:03:00,46.2,27.6,30.32,NW,304,2.0,5.0,48,0.00,,,0.00,Wunderground v.1.15,2013-11-28 19:03:00,
2013-11-28 13:13:00,45.8,27.7,30.31,WSW,254,2.0,5.0,49,0.00,,,0.00,Wunderground v.1.15,2013-11-28 19:13:00,
2013-11-28 13:18:00,45.7,28.1,30.31,ENE,59,1.0,5.0,50,0.00,,,0.00,Wunderground v.1.15,2013-11-28 19:18:00,
2013-11-28 13:23:00,45.5,27.4,30.31,NE,42,1.0,5.0,49,0.00,,,0.00,Wunderground v.1.15,2013-11-28 19:23:00,
2013-11-28 13:28:00,45.5,27.9,30.31,West,281,2.0,2.0,50,0.00,,,0.00,Wunderground v.1.15,2013-11-28 19:28:00,
2013-11-28 13:33:00,45.6,28.0,30.31,SSE,168,1.0,5.0,50,0.00,,,0.00,Wunderground v.1.15,2013-11-28 19:33:00,
2013-11-28 13:38:00,45.9,28.3,30.31,NE,49,1.0,5.0,50,0.00,,,0.00,Wunderground v.1.15,2013-11-28 19:38:00,
2013-11-28 13:43:00,45.7,26.6,30.31,West,275,2.0,5.0,47,0.00,,,0.00,Wunderground v.1.15,2013-11-28 19:43:00,
2013-11-28 13:48:00,45.7,27.1,30.31,West,271,2.0,2.0,48,0.00,,,0.00,Wunderground v.1.15,2013-11-28 19:48:00,
2013-11-28 13:53:00,45.7,26.6,30.31,NNE,28,1.0,5.0,47,0.00,,,0.00,Wunderground v.1.15,2013-11-28 19:53:00,
2013-11-28 13:58:00,45.8,26.7,30.31,East,98,1.0,1.0,47,0.00,,,0.00,Wunderground v.1.15,2013-11-28 19:58:00,
2013-11-28 14:03:00,46.0,26.9,30.31,WNW,286,1.0,3.0,47,0.00,,,0.00,Wunderground v.1.15,2013-11-28 20:03:00,
2013-11-28 14:08:00,46.0,27.4,30.31,North,10,1.0,5.0,48,0.00,,,0.00,Wunderground v.1.15,2013-11-28 20:08:00,
2013-11-28 14:13:00,46.3,27.7,30.31,East,86,1.0,5.0,48,0.00,,,0.00,Wunderground v.1.15,2013-11-28 20:13:00,
2013-11-28 14:23:00,46.4,27.2,30.31,North,9,1.0,5.0,47,0.00,,,0.00,Wunderground v.1.15,2013-11-28 20:23:00,
2013-11-28 14:28:00,46.5,27.8,30.31,NNE,30,1.0,5.0,48,0.00,,,0.00,Wunderground v.1.15,2013-11-28 20:28:00,
2013-11-28 14:33:00,46.6,27.4,30.30,NE,35,1.0,5.0,47,0.00,,,0.00,Wunderground v.1.15,2013-11-28 20:33:00,
2013-11-28 14:38:00,46.4,27.2,30.30,ENE,63,2.0,5.0,47,0.00,,,0.00,Wunderground v.1.15,2013-11-28 20:38:00,
2013-11-28 14:43:00,46.3,27.7,30.30,East,83,2.0,5.0,48,0.00,,,0.00,Wunderground v.1.15,2013-11-28 20:43:00,
2013-11-28 14:48:00,46.4,27.2,30.30,ESE,113,2.0,5.0,47,0.00,,,0.00,Wunderground v.1.15,2013-11-28 20:48:00,
2013-11-28 14:53:00,46.6,27.9,30.30,NE,53,2.0,5.0,48,0.00,,,0.00,Wunderground v.1.15,2013-11-28 20:53:00,
2013-11-28 14:58:00,46.7,28.0,30.30,NNE,24,1.0,5.0,48,0.00,,,0.00,Wunderground v.1.15,2013-11-28 20:58:00,
2013-11-28 15:03:00,46.8,28.1,30.30,North,360,2.0,5.0,48,0.00,,,0.00,Wunderground v.1.15,2013-11-28 21:03:00,
2013-11-28 15:13:00,47.6,27.8,30.30,WNW,289,1.0,2.0,46,0.00,,,0.00,Wunderground v.1.15,2013-11-28 21:13:00,
2013-11-28 15:18:00,48.1,29.3,30.30,North,355,1.0,1.0,48,0.00,,,0.00,Wunderground v.1.15,2013-11-28 21:18:00,
2013-11-28 15:23:00,48.2,27.8,30.30,NNW,330,0.0,1.0,45,0.00,,,0.00,Wunderground v.1.15,2013-11-28 21:23:00,
2013-11-28 15:28:00,48.1,28.3,30.30,NNW,331,0.0,0.0,46,0.00,,,0.00,Wunderground v.1.15,2013-11-28 21:28:00,
2013-11-28 15:33:00,48.0,30.2,30.30,NNW,331,0.0,1.0,50,0.00,,,0.00,Wunderground v.1.15,2013-11-28 21:33:00,
2013-11-28 15:38:00,47.6,29.9,30.30,NNW,331,0.0,4.0,50,0.00,,,0.00,Wunderground v.1.15,2013-11-28 21:38:00,
2013-11-28 15:43:00,47.3,31.0,30.30,NNW,331,0.0,4.0,53,0.00,,,0.00,Wunderground v.1.15,2013-11-28 21:43:00,
2013-11-28 15:48:00,46.9,32.0,30.30,NNW,331,1.0,1.0,56,0.00,,,0.00,Wunderground v.1.15,2013-11-28 21:48:00,
2013-11-28 15:53:00,46.4,32.0,30.30,NNW,340,1.0,4.0,57,0.00,,,0.00,Wunderground v.1.15,2013-11-28 21:53:00,
2013-11-28 15:58:00,46.0,29.3,30.30,North,9,1.0,1.0,52,0.00,,,0.00,Wunderground v.1.15,2013-11-28 21:58:00,
2013-11-28 16:08:00,45.7,30.9,30.30,North,9,1.0,4.0,56,0.00,,,0.00,Wunderground v.1.15,2013-11-28 22:08:00,
2013-11-28 16:13:00,45.5,31.1,30.30,North,9,1.0,4.0,57,0.00,,,0.00,Wunderground v.1.15,2013-11-28 22:13:00,
2013-11-28 16:18:00,45.4,31.5,30.31,North,9,1.0,1.0,58,0.00,,,0.00,Wunderground v.1.15,2013-11-28 22:18:00,
2013-11-28 16:23:00,45.2,30.9,30.31,North,9,0.0,4.0,57,0.00,,,0.00,Wunderground v.1.15,2013-11-28 22:23:00,
2013-11-28 16:28:00,45.1,30.8,30.31,North,9,0.0,4.0,57,0.00,,,0.00,Wunderground v.1.15,2013-11-28 22:28:00,
2013-11-28 16:33:00,45.0,32.8,30.32,North,9,0.0,4.0,62,0.00,,,0.00,Wunderground v.1.15,2013-11-28 22:33:00,
2013-11-28 16:38:00,44.9,33.5,30.32,North,9,0.0,4.0,64,0.00,,,0.00,Wunderground v.1.15,2013-11-28 22:38:00,
2013-11-28 16:43:00,44.6,33.6,30.32,North,9,0.0,4.0,65,0.00,,,0.00,Wunderground v.1.15,2013-11-28 22:43:00,
2013-11-28 16:48:00,44.3,33.3,30.32,North,9,0.0,4.0,65,0.00,,,0.00,Wunderground v.1.15,2013-11-28 22:48:00,
2013-11-28 16:53:00,44.0,33.0,30.32,North,9,0.0,4.0,65,0.00,,,0.00,Wunderground v.1.15,2013-11-28 22:53:00,
2013-11-28 16:58:00,43.6,33.0,30.32,North,9,0.0,4.0,66,0.00,,,0.00,Wunderground v.1.15,2013-11-28 22:58:00,
2013-11-28 17:03:00,43.0,32.4,30.33,North,9,0.0,4.0,66,0.00,,,0.00,Wunderground v.1.15,2013-11-28 23:03:00,
2013-11-28 17:08:00,42.4,32.6,30.33,North,9,1.0,1.0,68,0.00,,,0.00,Wunderground v.1.15,2013-11-28 23:08:00,
2013-11-28 17:13:00,41.8,33.1,30.33,North,9,1.0,4.0,71,0.00,,,0.00,Wunderground v.1.15,2013-11-28 23:13:00,
2013-11-28 17:18:00,41.2,32.9,30.32,North,9,1.0,1.0,72,0.00,,,0.00,Wunderground v.1.15,2013-11-28 23:18:00,
2013-11-28 17:23:00,40.7,32.7,30.32,North,9,0.0,4.0,73,0.00,,,0.00,Wunderground v.1.15,2013-11-28 23:23:00,
2013-11-28 17:28:00,40.3,32.7,30.32,North,9,0.0,4.0,74,0.00,,,0.00,Wunderground v.1.15,2013-11-28 23:28:00,
2013-11-28 17:33:00,39.9,32.3,30.32,North,9,1.0,4.0,74,0.00,,,0.00,Wunderground v.1.15,2013-11-28 23:33:00,
2013-11-28 17:38:00,39.6,32.0,30.32,North,9,1.0,1.0,74,0.00,,,0.00,Wunderground v.1.15,2013-11-28 23:38:00,
2013-11-28 17:43:00,39.3,32.0,30.32,North,9,0.0,4.0,75,0.00,,,0.00,Wunderground v.1.15,2013-11-28 23:43:00,
2013-11-28 17:48:00,39.0,32.4,30.33,North,9,0.0,4.0,77,0.00,,,0.00,Wunderground v.1.15,2013-11-28 23:48:00,
2013-11-28 17:53:00,38.6,32.0,30.33,North,9,0.0,4.0,77,0.00,,,0.00,Wunderground v.1.15,2013-11-28 23:53:00,
2013-11-28 17:58:00,38.1,31.8,30.33,North,9,1.0,4.0,78,0.00,,,0.00,Wunderground v.1.15,2013-11-28 23:58:00,
2013-11-28 18:03:00,37.5,31.3,30.33,North,9,1.0,4.0,78,0.00,,,0.00,Wunderground v.1.15,2013-11-29 00:03:00,
2013-11-28 18:08:00,37.1,31.2,30.33,North,9,1.0,4.0,79,0.00,,,0.00,Wunderground v.1.15,2013-11-29 00:08:00,
2013-11-28 18:13:00,36.8,31.2,30.33,North,9,1.0,4.0,80,0.00,,,0.00,Wunderground v.1.15,2013-11-29 00:13:00,
2013-11-28 18:18:00,36.6,31.0,30.33,North,9,0.0,4.0,80,0.00,,,0.00,Wunderground v.1.15,2013-11-29 00:18:00,
2013-11-28 18:23:00,36.3,30.7,30.33,North,9,0.0,4.0,80,0.00,,,0.00,Wunderground v.1.15,2013-11-29 00:23:00,
2013-11-28 18:28:00,36.0,30.4,30.33,North,9,0.0,4.0,80,0.00,,,0.00,Wunderground v.1.15,2013-11-29 00:28:00,
2013-11-28 18:33:00,35.8,30.2,30.34,North,9,0.0,4.0,80,0.00,,,0.00,Wunderground v.1.15,2013-11-29 00:33:00,
2013-11-28 18:38:00,35.5,30.2,30.34,North,9,0.0,4.0,81,0.00,,,0.00,Wunderground v.1.15,2013-11-29 00:38:00,
2013-11-28 18:43:00,35.4,30.5,30.34,North,9,1.0,4.0,82,0.00,,,0.00,Wunderground v.1.15,2013-11-29 00:43:00,
2013-11-28 18:48:00,35.2,30.6,30.34,North,9,1.0,1.0,83,0.00,,,0.00,Wunderground v.1.15,2013-11-29 00:48:00,
2013-11-28 18:53:00,35.1,30.5,30.34,North,9,0.0,4.0,83,0.00,,,0.00,Wunderground v.1.15,2013-11-29 00:53:00,
2013-11-28 18:58:00,34.9,30.3,30.34,North,9,0.0,4.0,83,0.00,,,0.00,Wunderground v.1.15,2013-11-29 00:58:00,
2013-11-28 19:03:00,34.7,30.1,30.34,North,9,1.0,4.0,83,0.00,,,0.00,Wunderground v.1.15,2013-11-29 01:03:00,
2013-11-28 19:08:00,34.4,29.8,30.34,North,9,1.0,1.0,83,0.00,,,0.00,Wunderground v.1.15,2013-11-29 01:08:00,
2013-11-28 19:13:00,34.2,29.6,30.34,North,9,0.0,4.0,83,0.00,,,0.00,Wunderground v.1.15,2013-11-29 01:13:00,
2013-11-28 19:18:00,33.8,29.5,30.34,North,9,1.0,4.0,84,0.00,,,0.00,Wunderground v.1.15,2013-11-29 01:18:00,
2013-11-28 19:23:00,33.4,29.1,30.34,North,9,1.0,4.0,84,0.00,,,0.00,Wunderground v.1.15,2013-11-29 01:23:00,
2013-11-28 19:28:00,33.1,29.1,30.34,North,9,1.0,1.0,85,0.00,,,0.00,Wunderground v.1.15,2013-11-29 01:28:00,
2013-11-28 19:33:00,32.9,28.9,30.34,North,9,0.0,4.0,85,0.00,,,0.00,Wunderground v.1.15,2013-11-29 01:33:00,
2013-11-28 19:38:00,32.8,29.1,30.34,North,9,0.0,4.0,86,0.00,,,0.00,Wunderground v.1.15,2013-11-29 01:38:00,
2013-11-28 19:43:00,32.6,28.9,30.34,North,9,0.0,4.0,86,0.00,,,0.00,Wunderground v.1.15,2013-11-29 01:43:00,
2013-11-28 19:48:00,32.4,28.7,30.34,North,9,0.0,4.0,86,0.00,,,0.00,Wunderground v.1.15,2013-11-29 01:48:00,
2013-11-28 19:53:00,32.1,28.4,30.34,North,9,0.0,4.0,86,0.00,,,0.00,Wunderground v.1.15,2013-11-29 01:53:00,
2013-11-28 19:58:00,31.9,28.2,30.34,North,9,0.0,4.0,86,0.00,,,0.00,Wunderground v.1.15,2013-11-29 01:58:00,
2013-11-28 20:03:00,31.7,28.0,30.35,North,9,0.0,4.0,86,0.00,,,0.00,Wunderground v.1.15,2013-11-29 02:03:00,
2013-11-28 20:08:00,31.5,27.8,30.35,North,9,0.0,4.0,86,0.00,,,0.00,Wunderground v.1.15,2013-11-29 02:08:00,
2013-11-28 20:13:00,31.2,27.8,30.35,North,9,0.0,4.0,87,0.00,,,0.00,Wunderground v.1.15,2013-11-29 02:13:00,
2013-11-28 20:18:00,31.0,27.6,30.35,North,9,1.0,1.0,87,0.00,,,0.00,Wunderground v.1.15,2013-11-29 02:18:00,
2013-11-28 20:23:00,30.8,27.7,30.35,North,9,1.0,4.0,88,0.00,,,0.00,Wunderground v.1.15,2013-11-29 02:23:00,
2013-11-28 20:28:00,30.7,27.6,30.35,North,9,0.0,4.0,88,0.00,,,0.00,Wunderground v.1.15,2013-11-29 02:28:00,
2013-11-28 20:33:00,30.6,27.5,30.35,North,9,1.0,4.0,88,0.00,,,0.00,Wunderground v.1.15,2013-11-29 02:33:00,
2013-11-28 20:38:00,30.4,27.3,30.35,North,9,0.0,4.0,88,0.00,,,0.00,Wunderground v.1.15,2013-11-29 02:38:00,
2013-11-28 20:43:00,30.2,27.1,30.35,North,9,0.0,4.0,88,0.00,,,0.00,Wunderground v.1.15,2013-11-29 02:43:00,
2013-11-28 20:48:00,30.1,27.3,30.35,North,9,0.0,4.0,89,0.00,,,0.00,Wunderground v.1.15,2013-11-29 02:48:00,
2013-11-28 20:53:00,29.9,27.1,30.35,North,9,0.0,4.0,89,0.00,,,0.00,Wunderground v.1.15,2013-11-29 02:53:00,
2013-11-28 20:58:00,29.8,27.0,30.35,North,9,0.0,4.0,89,0.00,,,0.00,Wunderground v.1.15,2013-11-29 02:58:00,
2013-11-28 21:03:00,29.7,26.9,30.35,North,9,1.0,4.0,89,0.00,,,0.00,Wunderground v.1.15,2013-11-29 03:03:00,
2013-11-28 21:08:00,29.7,27.1,30.35,North,9,1.0,1.0,90,0.00,,,0.00,Wunderground v.1.15,2013-11-29 03:08:00,
2013-11-28 21:13:00,29.6,27.0,30.35,North,9,1.0,4.0,90,0.00,,,0.00,Wunderground v.1.15,2013-11-29 03:13:00,
2013-11-28 21:18:00,29.5,26.9,30.35,North,9,0.0,4.0,90,0.00,,,0.00,Wunderground v.1.15,2013-11-29 03:18:00,
2013-11-28 21:23:00,29.3,26.7,30.35,North,9,0.0,4.0,90,0.00,,,0.00,Wunderground v.1.15,2013-11-29 03:23:00,
2013-11-28 21:28:00,29.2,26.6,30.35,North,9,0.0,4.0,90,0.00,,,0.00,Wunderground v.1.15,2013-11-29 03:28:00,
2013-11-28 21:38:00,29.1,26.5,30.36,North,9,1.0,1.0,90,0.00,,,0.00,Wunderground v.1.15,2013-11-29 03:38:00,
2013-11-28 21:43:00,29.1,26.5,30.36,North,9,0.0,4.0,90,0.00,,,0.00,Wunderground v.1.15,2013-11-29 03:43:00,
2013-11-28 21:48:00,28.9,26.3,30.36,North,9,0.0,4.0,90,0.00,,,0.00,Wunderground v.1.15,2013-11-29 03:48:00,
2013-11-28 21:53:00,28.8,26.2,30.36,North,9,0.0,4.0,90,0.00,,,0.00,Wunderground v.1.15,2013-11-29 03:53:00,
2013-11-28 21:58:00,28.6,26.0,30.36,North,9,0.0,4.0,90,0.00,,,0.00,Wunderground v.1.15,2013-11-29 03:58:00,
2013-11-28 22:03:00,28.4,25.8,30.36,North,9,0.0,4.0,90,0.00,,,0.00,Wunderground v.1.15,2013-11-29 04:03:00,
2013-11-28 22:08:00,28.2,25.6,30.36,North,9,0.0,4.0,90,0.00,,,0.00,Wunderground v.1.15,2013-11-29 04:08:00,
2013-11-28 22:13:00,28.1,25.5,30.36,North,9,0.0,4.0,90,0.00,,,0.00,Wunderground v.1.15,2013-11-29 04:13:00,
2013-11-28 22:18:00,27.9,25.3,30.37,North,9,0.0,4.0,90,0.00,,,0.00,Wunderground v.1.15,2013-11-29 04:18:00,
2013-11-28 22:23:00,27.8,25.2,30.37,North,9,0.0,4.0,90,0.00,,,0.00,Wunderground v.1.15,2013-11-29 04:23:00,
2013-11-28 22:28:00,27.7,25.2,30.37,North,9,0.0,4.0,90,0.00,,,0.00,Wunderground v.1.15,2013-11-29 04:28:00,
2013-11-28 22:33:00,27.6,25.3,30.37,North,9,0.0,4.0,91,0.00,,,0.00,Wunderground v.1.15,2013-11-29 04:33:00,
2013-11-28 22:38:00,27.5,25.0,30.37,North,9,0.0,4.0,90,0.00,,,0.00,Wunderground v.1.15,2013-11-29 04:38:00,
2013-11-28 22:43:00,27.4,25.1,30.37,North,9,0.0,4.0,91,0.00,,,0.00,Wunderground v.1.15,2013-11-29 04:43:00,
2013-11-28 22:48:00,27.5,25.2,30.37,North,9,0.0,4.0,91,0.00,,,0.00,Wunderground v.1.15,2013-11-29 04:48:00,
2013-11-28 22:53:00,27.5,25.2,30.37,North,9,0.0,4.0,91,0.00,,,0.00,Wunderground v.1.15,2013-11-29 04:53:00,
2013-11-28 22:58:00,27.6,25.6,30.37,North,9,0.0,4.0,92,0.00,,,0.00,Wunderground v.1.15,2013-11-29 04:58:00,
2013-11-28 23:03:00,27.7,25.7,30.37,North,9,1.0,4.0,92,0.00,,,0.00,Wunderground v.1.15,2013-11-29 05:03:00,
2013-11-28 23:08:00,27.6,25.3,30.37,North,9,0.0,4.0,91,0.00,,,0.00,Wunderground v.1.15,2013-11-29 05:08:00,
2013-11-28 23:13:00,27.5,25.5,30.37,North,9,0.0,4.0,92,0.00,,,0.00,Wunderground v.1.15,2013-11-29 05:13:00,
2013-11-28 23:18:00,27.3,25.0,30.37,North,9,0.0,4.0,91,0.00,,,0.00,Wunderground v.1.15,2013-11-29 05:18:00,
2013-11-28 23:23:00,27.2,24.9,30.37,North,9,0.0,4.0,91,0.00,,,0.00,Wunderground v.1.15,2013-11-29 05:23:00,
2013-11-28 23:28:00,27.2,25.2,30.37,North,9,0.0,4.0,92,0.00,,,0.00,Wunderground v.1.15,2013-11-29 05:28:00,
2013-11-28 23:33:00,27.2,25.2,30.37,North,9,0.0,4.0,92,0.00,,,0.00,Wunderground v.1.15,2013-11-29 05:33:00,
2013-11-28 23:38:00,27.1,25.1,30.37,North,9,0.0,4.0,92,0.00,,,0.00,Wunderground v.1.15,2013-11-29 05:38:00,
2013-11-28 23:43:00,27.0,24.7,30.37,North,9,0.0,4.0,91,0.00,,,0.00,Wunderground v.1.15,2013-11-29 05:43:00,
2013-11-28 23:48:00,26.9,24.9,30.37,North,9,0.0,4.0,92,0.00,,,0.00,Wunderground v.1.15,2013-11-29 05:48:00,
2013-11-28 23:53:00,27.0,25.0,30.37,North,9,0.0,4.0,92,0.00,,,0.00,Wunderground v.1.15,2013-11-29 05:53:00,
2013-11-28 23:58:00,27.0,25.0,30.37,North,9,0.0,4.0,92,0.00,,,0.00,Wunderground v.1.15,2013-11-29 05:58:00,